Chamberlain, SD

6:45 PM CDT on October 20, 2017 (GMT -0500)
Chamberlain

Weather History for K9V9 - May, 2013

Change the Weather History Date:

Wednesday, May 15, 2013

  Actual Average Record
Temperature  
Mean Temperature 68 °F -  
Max Temperature 82 °F 66 °F 82 °F (2013)
Min Temperature 55 °F 43 °F 30 °F (2005)
Cooling Degree Days 4    
Growing Degree Days 18 (Base 50)    
Moisture  
Dew Point 42 °F    
Average Humidity 40    
Maximum Humidity 62    
Minimum Humidity 22    
Precipitation  
Precipitation 0.00 in - - ()
Sea Level Pressure  
Sea Level Pressure 29.89 in    
Wind  
Wind Speed 8 mph (ENE)    
Max Wind Speed 14 mph    
Max Gust Speed 16 mph    
Averages and records for this station are not official NWS values.
T = Trace of Precipitation, MM = Missing Value Source: NWS Daily Summary

Daily Weather History Graph

Daily Weather History Graph

Search for Another Location

Airport or City:

Trip Planner

Search our weather history database for the weather conditions in past years. The results will help you decide how hot, cold, wet, or windy it might be!

Date:

Astronomy

May. 15, 2013 Rise Set
Actual Time 6:11 AM CDT 8:56 PM CDT
Civil Twilight 5:38 AM CDT 9:29 PM CDT
Nautical Twilight 4:56 AM CDT 10:12 PM CDT
Astronomical Twilight 4:07 AM CDT 11:00 PM CDT
Moon 10:50 AM CDT (5/15) 12:42 AM CDT (5/15)
Length of Visible Light 15h 51m
Length of Day
14h 44m
Waxing Crescent, 27% of the Moon is Illuminated
May 15
Waxing Crescent
May 17
First Quarter
May 24
Full
May 31
Last Quarter
Jun 8
New

Hourly Weather History & Observations

Time (CDT) Temp. Dew Point Humidity Pressure Visibility Wind Dir Wind Speed Gust Speed Precip Events Conditions
12:52 AM 61.0 °F 39.9 °F 46% 29.84 in - NE 11.5 mph - N/A   Unknown
1:52 AM 61.0 °F 39.9 °F 46% 29.86 in - ENE 3.5 mph - N/A   Unknown
2:52 AM 57.0 °F 41.0 °F 55% 29.84 in - East 4.6 mph - N/A   Unknown
3:52 AM 59.0 °F 42.1 °F 53% 29.87 in - NNE 9.2 mph - N/A   Unknown
4:52 AM 59.0 °F 42.1 °F 53% 29.89 in - NNE 11.5 mph - N/A   Unknown
5:52 AM 59.0 °F 43.0 °F 55% 29.93 in - ENE 6.9 mph - N/A   Unknown
6:52 AM 55.9 °F 43.0 °F 62% 29.95 in - SSE 3.5 mph - N/A   Unknown
7:52 AM 61.0 °F 46.0 °F 58% 29.93 in - SE 3.5 mph - N/A   Unknown
8:52 AM 66.0 °F 45.0 °F 47% 29.94 in - SE 8.1 mph - N/A   Unknown
9:52 AM 70.0 °F 43.0 °F 38% 29.94 in - SE 13.8 mph - N/A   Unknown
10:52 AM 73.0 °F 42.1 °F 33% 29.93 in - Variable 3.5 mph - N/A   Unknown
11:52 AM 75.0 °F 43.0 °F 32% 29.92 in - SE 10.4 mph - N/A   Unknown
12:52 PM 77.0 °F 41.0 °F 28% 29.92 in - East 5.8 mph - N/A   Unknown
1:52 PM 79.0 °F 42.1 °F 27% 29.91 in - Variable 3.5 mph - N/A   Unknown
2:52 PM 80.1 °F 41.0 °F 25% 29.90 in - NNW 10.4 mph - N/A   Unknown
3:52 PM 82.0 °F 41.0 °F 23% 29.87 in - NNE 9.2 mph - N/A   Unknown
4:52 PM 82.0 °F 39.9 °F 22% 29.85 in - North 10.4 mph - N/A   Unknown
5:52 PM 80.1 °F 41.0 °F 25% 29.85 in - NE 9.2 mph 16.1 mph N/A   Unknown
6:52 PM 80.1 °F 39.9 °F 24% 29.84 in - ENE 9.2 mph - N/A   Unknown
7:52 PM 78.1 °F 42.1 °F 28% 29.83 in - ENE 6.9 mph - N/A   Unknown
8:52 PM 72.0 °F 42.1 °F 34% 29.85 in - ENE 10.4 mph - N/A   Unknown
9:52 PM 68.0 °F 42.1 °F 39% 29.86 in - East 9.2 mph - N/A   Unknown
10:52 PM 63.0 °F 42.1 °F 46% 29.88 in - East 9.2 mph - N/A   Unknown
11:52 PM 60.1 °F 43.0 °F 53% 29.88 in - ESE 5.8 mph - N/A   Unknown